Time,TemperatureF,DewpointF,PressureIn,WindDirection,WindDirectionDegrees,WindSpeedMPH,WindSpeedGustMPH,Humidity,HourlyPrecipIn,Conditions,Clouds,dailyrainin,SoftwareType,DateUTC
2013-04-03 00:00:00,28.2,16.0,29.17,NW,315,12.0,19.0,60,0.00,,,0.00,Rainwise IP-100,2013-04-03 04:00:00,
2013-04-03 00:05:00,28.4,16.0,29.17,WSW,247,11.0,19.0,59,0.00,,,0.00,Rainwise IP-100,2013-04-03 04:05:00,
2013-04-03 00:06:00,28.6,16.0,29.18,WNW,292,12.0,19.0,58,0.00,,,0.00,Rainwise IP-100,2013-04-03 04:06:00,
2013-04-03 00:11:00,28.3,16.0,29.18,WSW,247,11.0,15.0,60,0.00,,,0.00,Rainwise IP-100,2013-04-03 04:11:00,
2013-04-03 00:16:00,28.3,16.0,29.18,West,270,6.0,20.0,61,0.00,,,0.00,Rainwise IP-100,2013-04-03 04:16:00,
2013-04-03 00:21:00,28.2,16.0,29.18,South,180,4.0,8.0,60,0.00,,,0.00,Rainwise IP-100,2013-04-03 04:21:00,
2013-04-03 00:26:00,28.2,16.0,29.18,West,270,6.0,14.0,59,0.00,,,0.00,Rainwise IP-100,2013-04-03 04:26:00,
2013-04-03 00:32:00,28.2,16.0,29.19,WNW,292,9.0,15.0,59,0.00,,,0.00,Rainwise IP-100,2013-04-03 04:32:00,
2013-04-03 00:36:00,28.1,16.0,29.19,SSW,202,10.0,19.0,61,0.00,,,0.00,Rainwise IP-100,2013-04-03 04:36:00,
2013-04-03 00:41:00,27.9,16.0,29.19,West,270,10.0,16.0,62,0.00,,,0.00,Rainwise IP-100,2013-04-03 04:41:00,
2013-04-03 00:46:00,27.6,18.0,29.19,West,270,6.0,17.0,65,0.00,,,0.00,Rainwise IP-100,2013-04-03 04:46:00,
2013-04-03 00:51:00,27.4,18.0,29.19,WNW,292,6.0,14.0,66,0.00,,,0.00,Rainwise IP-100,2013-04-03 04:51:00,
2013-04-03 00:57:00,27.2,18.0,29.19,WSW,247,7.0,13.0,66,0.00,,,0.00,Rainwise IP-100,2013-04-03 04:57:00,
2013-04-03 01:02:00,27.1,16.0,29.19,WNW,292,9.0,16.0,63,0.00,,,0.00,Rainwise IP-100,2013-04-03 05:02:00,
2013-04-03 01:07:00,27.0,16.0,29.19,WSW,247,5.0,11.0,63,0.00,,,0.00,Rainwise IP-100,2013-04-03 05:07:00,
2013-04-03 01:12:00,26.9,16.0,29.19,NW,315,10.0,16.0,62,0.00,,,0.00,Rainwise IP-100,2013-04-03 05:12:00,
2013-04-03 01:17:00,27.3,16.0,29.19,NW,315,13.0,17.0,59,0.00,,,0.00,Rainwise IP-100,2013-04-03 05:17:00,
2013-04-03 01:22:00,27.3,16.0,29.19,WNW,292,4.0,19.0,60,0.00,,,0.00,Rainwise IP-100,2013-04-03 05:22:00,
2013-04-03 01:27:00,27.1,16.0,29.19,WSW,247,8.0,13.0,58,0.00,,,0.00,Rainwise IP-100,2013-04-03 05:27:00,
2013-04-03 01:33:00,27.0,16.0,29.19,WNW,292,7.0,13.0,57,0.00,,,0.00,Rainwise IP-100,2013-04-03 05:33:00,
2013-04-03 01:38:00,26.9,16.0,29.19,WSW,247,4.0,10.0,59,0.00,,,0.00,Rainwise IP-100,2013-04-03 05:38:00,
2013-04-03 01:43:00,26.9,16.0,29.19,SW,225,7.0,9.0,59,0.00,,,0.00,Rainwise IP-100,2013-04-03 05:43:00,
2013-04-03 01:48:00,26.9,16.0,29.19,WSW,247,4.0,13.0,59,0.00,,,0.00,Rainwise IP-100,2013-04-03 05:48:00,
2013-04-03 01:53:00,26.9,16.0,29.19,West,270,7.0,16.0,57,0.00,,,0.00,Rainwise IP-100,2013-04-03 05:53:00,
2013-04-03 01:58:00,26.9,14.0,29.19,WNW,292,12.0,15.0,56,0.00,,,0.00,Rainwise IP-100,2013-04-03 05:58:00,
2013-04-03 02:03:00,26.9,14.0,29.19,NW,315,11.0,17.0,54,0.00,,,0.00,Rainwise IP-100,2013-04-03 06:03:00,
2013-04-03 02:09:00,26.9,14.0,29.19,WNW,292,4.0,19.0,53,0.00,,,0.00,Rainwise IP-100,2013-04-03 06:09:00,
2013-04-03 02:14:00,26.9,14.0,29.19,SSW,202,7.0,20.0,52,0.00,,,0.00,Rainwise IP-100,2013-04-03 06:14:00,
2013-04-03 02:19:00,26.9,14.0,29.19,WNW,292,10.0,19.0,53,0.00,,,0.00,Rainwise IP-100,2013-04-03 06:19:00,
2013-04-03 02:24:00,26.9,14.0,29.19,WSW,247,8.0,19.0,50,0.00,,,0.00,Rainwise IP-100,2013-04-03 06:24:00,
2013-04-03 02:29:00,26.9,14.0,29.19,West,270,9.0,23.0,50,0.00,,,0.00,Rainwise IP-100,2013-04-03 06:29:00,
2013-04-03 02:34:00,26.5,14.0,29.19,West,270,7.0,16.0,52,0.00,,,0.00,Rainwise IP-100,2013-04-03 06:34:00,
2013-04-03 02:39:00,26.5,14.0,29.19,WSW,247,17.0,17.0,50,0.00,,,0.00,Rainwise IP-100,2013-04-03 06:39:00,
2013-04-03 02:45:00,26.5,14.0,29.19,NW,315,11.0,19.0,50,0.00,,,0.00,Rainwise IP-100,2013-04-03 06:45:00,
2013-04-03 02:50:00,26.4,11.0,29.19,WNW,292,13.0,21.0,50,0.00,,,0.00,Rainwise IP-100,2013-04-03 06:50:00,
2013-04-03 02:55:00,26.4,11.0,29.19,WNW,292,6.0,18.0,50,0.00,,,0.00,Rainwise IP-100,2013-04-03 06:55:00,
2013-04-03 03:00:00,26.1,11.0,29.20,WSW,247,4.0,9.0,50,0.00,,,0.00,Rainwise IP-100,2013-04-03 07:00:00,
2013-04-03 03:05:00,26.1,11.0,29.20,WSW,247,9.0,13.0,50,0.00,,,0.00,Rainwise IP-100,2013-04-03 07:05:00,
2013-04-03 03:10:00,25.9,11.0,29.20,WSW,247,5.0,19.0,51,0.00,,,0.00,Rainwise IP-100,2013-04-03 07:10:00,
2013-04-03 03:15:00,25.9,11.0,29.20,West,270,6.0,11.0,51,0.00,,,0.00,Rainwise IP-100,2013-04-03 07:15:00,
2013-04-03 03:20:00,25.8,11.0,29.19,West,270,9.0,16.0,50,0.00,,,0.00,Rainwise IP-100,2013-04-03 07:20:00,
2013-04-03 03:25:00,25.9,11.0,29.20,West,270,4.0,16.0,50,0.00,,,0.00,Rainwise IP-100,2013-04-03 07:25:00,
2013-04-03 03:31:00,25.8,11.0,29.20,West,270,11.0,12.0,50,0.00,,,0.00,Rainwise IP-100,2013-04-03 07:31:00,
2013-04-03 03:36:00,25.8,11.0,29.20,WSW,247,9.0,16.0,50,0.00,,,0.00,Rainwise IP-100,2013-04-03 07:36:00,
2013-04-03 03:41:00,25.4,11.0,29.20,WNW,292,4.0,17.0,51,0.00,,,0.00,Rainwise IP-100,2013-04-03 07:41:00,
2013-04-03 03:46:00,25.5,11.0,29.20,WSW,247,10.0,15.0,50,0.00,,,0.00,Rainwise IP-100,2013-04-03 07:46:00,
2013-04-03 03:51:00,25.3,11.0,29.20,WNW,292,6.0,12.0,51,0.00,,,0.00,Rainwise IP-100,2013-04-03 07:51:00,
2013-04-03 03:57:00,25.2,11.0,29.20,SW,225,10.0,17.0,50,0.00,,,0.00,Rainwise IP-100,2013-04-03 07:57:00,
2013-04-03 04:02:00,25.2,11.0,29.20,South,180,6.0,13.0,51,0.00,,,0.00,Rainwise IP-100,2013-04-03 08:02:00,
2013-04-03 04:07:00,24.9,11.0,29.20,West,270,5.0,9.0,52,0.00,,,0.00,Rainwise IP-100,2013-04-03 08:07:00,
2013-04-03 04:12:00,25.0,11.0,29.20,WSW,247,6.0,16.0,53,0.00,,,0.00,Rainwise IP-100,2013-04-03 08:12:00,
2013-04-03 04:17:00,25.1,11.0,29.20,West,270,5.0,12.0,52,0.00,,,0.00,Rainwise IP-100,2013-04-03 08:17:00,
2013-04-03 04:22:00,24.9,11.0,29.20,SW,225,5.0,9.0,53,0.00,,,0.00,Rainwise IP-100,2013-04-03 08:22:00,
2013-04-03 04:27:00,24.9,11.0,29.20,SW,225,6.0,11.0,52,0.00,,,0.00,Rainwise IP-100,2013-04-03 08:27:00,
2013-04-03 04:32:00,24.9,11.0,29.20,WSW,247,5.0,11.0,53,0.00,,,0.00,Rainwise IP-100,2013-04-03 08:32:00,
2013-04-03 04:37:00,24.7,14.0,29.20,NW,315,5.0,9.0,54,0.00,,,0.00,Rainwise IP-100,2013-04-03 08:37:00,
2013-04-03 04:43:00,24.8,14.0,29.20,WSW,247,7.0,19.0,54,0.00,,,0.00,Rainwise IP-100,2013-04-03 08:43:00,
2013-04-03 04:48:00,24.7,14.0,29.20,WSW,247,6.0,13.0,54,0.00,,,0.00,Rainwise IP-100,2013-04-03 08:48:00,
2013-04-03 04:53:00,24.5,14.0,29.20,SW,225,4.0,12.0,55,0.00,,,0.00,Rainwise IP-100,2013-04-03 08:53:00,
2013-04-03 04:58:00,24.4,11.0,29.20,West,270,7.0,12.0,57,0.00,,,0.00,Rainwise IP-100,2013-04-03 08:58:00,
2013-04-03 05:03:00,24.3,11.0,29.20,WNW,292,7.0,13.0,57,0.00,,,0.00,Rainwise IP-100,2013-04-03 09:03:00,
2013-04-03 05:08:00,24.1,14.0,29.20,WNW,292,3.0,11.0,59,0.00,,,0.00,Rainwise IP-100,2013-04-03 09:08:00,
2013-04-03 05:13:00,23.9,11.0,29.21,WSW,247,4.0,9.0,57,0.00,,,0.00,Rainwise IP-100,2013-04-03 09:13:00,
2013-04-03 05:19:00,24.1,11.0,29.21,WSW,247,9.0,12.0,57,0.00,,,0.00,Rainwise IP-100,2013-04-03 09:19:00,
2013-04-03 05:24:00,23.9,11.0,29.21,SW,225,8.0,11.0,57,0.00,,,0.00,Rainwise IP-100,2013-04-03 09:24:00,
2013-04-03 05:29:00,24.1,11.0,29.21,WSW,247,6.0,10.0,57,0.00,,,0.00,Rainwise IP-100,2013-04-03 09:29:00,
2013-04-03 05:34:00,24.0,11.0,29.21,West,270,7.0,12.0,57,0.00,,,0.00,Rainwise IP-100,2013-04-03 09:34:00,
2013-04-03 05:39:00,23.8,14.0,29.21,WNW,292,7.0,8.0,59,0.00,,,0.00,Rainwise IP-100,2013-04-03 09:39:00,
2013-04-03 05:44:00,23.7,14.0,29.21,WSW,247,6.0,11.0,59,0.00,,,0.00,Rainwise IP-100,2013-04-03 09:44:00,
2013-04-03 05:49:00,23.7,14.0,29.22,West,270,6.0,10.0,59,0.00,,,0.00,Rainwise IP-100,2013-04-03 09:49:00,
2013-04-03 05:54:00,23.9,14.0,29.21,WSW,247,6.0,13.0,59,0.00,,,0.00,Rainwise IP-100,2013-04-03 09:54:00,
2013-04-03 05:59:00,23.8,14.0,29.21,West,270,4.0,7.0,60,0.00,,,0.00,Rainwise IP-100,2013-04-03 09:59:00,
2013-04-03 06:05:00,23.8,14.0,29.22,WNW,292,11.0,11.0,60,0.00,,,0.00,Rainwise IP-100,2013-04-03 10:05:00,
2013-04-03 06:10:00,23.8,14.0,29.22,SW,225,6.0,10.0,61,0.00,,,0.00,Rainwise IP-100,2013-04-03 10:10:00,
2013-04-03 06:15:00,23.8,14.0,29.22,WSW,247,7.0,12.0,61,0.00,,,0.00,Rainwise IP-100,2013-04-03 10:15:00,
2013-04-03 06:20:00,23.7,14.0,29.22,SW,225,10.0,10.0,61,0.00,,,0.00,Rainwise IP-100,2013-04-03 10:20:00,
2013-04-03 06:25:00,23.8,14.0,29.22,SW,225,7.0,12.0,60,0.00,,,0.00,Rainwise IP-100,2013-04-03 10:25:00,
2013-04-03 06:30:00,23.9,14.0,29.22,WSW,247,10.0,13.0,61,0.00,,,0.00,Rainwise IP-100,2013-04-03 10:30:00,
2013-04-03 06:35:00,24.0,14.0,29.22,NNW,337,6.0,14.0,60,0.00,,,0.00,Rainwise IP-100,2013-04-03 10:35:00,
2013-04-03 06:41:00,23.7,14.0,29.22,NNW,337,0.0,8.0,61,0.00,,,0.00,Rainwise IP-100,2013-04-03 10:41:00,
2013-04-03 06:46:00,23.6,14.0,29.23,WNW,292,4.0,8.0,61,0.00,,,0.00,Rainwise IP-100,2013-04-03 10:46:00,
2013-04-03 06:51:00,23.6,14.0,29.23,West,270,1.0,9.0,61,0.00,,,0.00,Rainwise IP-100,2013-04-03 10:51:00,
2013-04-03 06:56:00,23.6,14.0,29.23,WNW,292,6.0,9.0,62,0.00,,,0.00,Rainwise IP-100,2013-04-03 10:56:00,
2013-04-03 07:01:00,23.6,14.0,29.23,SW,225,6.0,9.0,63,0.00,,,0.00,Rainwise IP-100,2013-04-03 11:01:00,
2013-04-03 07:07:00,23.8,14.0,29.23,NW,315,6.0,9.0,63,0.00,,,0.00,Rainwise IP-100,2013-04-03 11:07:00,
2013-04-03 07:12:00,24.1,14.0,29.24,WSW,247,4.0,17.0,62,0.00,,,0.00,Rainwise IP-100,2013-04-03 11:12:00,
2013-04-03 07:17:00,24.3,14.0,29.24,WSW,247,9.0,12.0,61,0.00,,,0.00,Rainwise IP-100,2013-04-03 11:17:00,
2013-04-03 07:22:00,24.7,16.0,29.24,WSW,247,10.0,17.0,61,0.00,,,0.00,Rainwise IP-100,2013-04-03 11:22:00,
2013-04-03 07:27:00,24.9,14.0,29.24,SW,225,9.0,20.0,60,0.00,,,0.00,Rainwise IP-100,2013-04-03 11:27:00,
2013-04-03 07:32:00,25.5,14.0,29.24,West,270,9.0,15.0,59,0.00,,,0.00,Rainwise IP-100,2013-04-03 11:32:00,
2013-04-03 07:37:00,25.8,14.0,29.24,NW,315,14.0,14.0,59,0.00,,,0.00,Rainwise IP-100,2013-04-03 11:37:00,
2013-04-03 07:43:00,26.1,14.0,29.25,West,270,9.0,16.0,57,0.00,,,0.00,Rainwise IP-100,2013-04-03 11:43:00,
2013-04-03 07:48:00,26.3,14.0,29.24,West,270,10.0,11.0,57,0.00,,,0.00,Rainwise IP-100,2013-04-03 11:48:00,
2013-04-03 07:53:00,26.9,16.0,29.24,SW,225,7.0,15.0,57,0.00,,,0.00,Rainwise IP-100,2013-04-03 11:53:00,
2013-04-03 07:58:00,26.8,14.0,29.24,NW,315,3.0,17.0,55,0.00,,,0.00,Rainwise IP-100,2013-04-03 11:58:00,
2013-04-03 08:03:00,27.2,14.0,29.25,West,270,8.0,14.0,55,0.00,,,0.00,Rainwise IP-100,2013-04-03 12:03:00,
2013-04-03 08:08:00,27.2,14.0,29.25,SW,225,4.0,17.0,53,0.00,,,0.00,Rainwise IP-100,2013-04-03 12:08:00,
2013-04-03 08:13:00,27.6,14.0,29.25,WSW,247,6.0,14.0,52,0.00,,,0.00,Rainwise IP-100,2013-04-03 12:13:00,
2013-04-03 08:18:00,28.2,14.0,29.25,SW,225,3.0,11.0,53,0.00,,,0.00,Rainwise IP-100,2013-04-03 12:18:00,
2013-04-03 08:23:00,28.8,14.0,29.25,NW,315,8.0,9.0,50,0.00,,,0.00,Rainwise IP-100,2013-04-03 12:23:00,
2013-04-03 08:29:00,28.5,14.0,29.25,SW,225,8.0,15.0,50,0.00,,,0.00,Rainwise IP-100,2013-04-03 12:29:00,
2013-04-03 08:34:00,28.9,14.0,29.25,WNW,292,13.0,13.0,51,0.00,,,0.00,Rainwise IP-100,2013-04-03 12:34:00,
2013-04-03 08:39:00,28.9,14.0,29.25,SSW,202,7.0,16.0,50,0.00,,,0.00,Rainwise IP-100,2013-04-03 12:39:00,
2013-04-03 08:44:00,29.5,16.0,29.26,NW,315,5.0,16.0,50,0.00,,,0.00,Rainwise IP-100,2013-04-03 12:44:00,
2013-04-03 08:49:00,29.5,14.0,29.25,SW,225,13.0,15.0,47,0.00,,,0.00,Rainwise IP-100,2013-04-03 12:49:00,
2013-04-03 08:54:00,29.5,14.0,29.26,NW,315,6.0,17.0,46,0.00,,,0.00,Rainwise IP-100,2013-04-03 12:54:00,
2013-04-03 08:59:00,30.3,14.0,29.26,SSE,157,0.0,12.0,47,0.00,,,0.00,Rainwise IP-100,2013-04-03 12:59:00,
2013-04-03 09:05:00,30.1,14.0,29.26,West,270,10.0,15.0,45,0.00,,,0.00,Rainwise IP-100,2013-04-03 13:05:00,
2013-04-03 09:10:00,30.5,11.0,29.26,WNW,292,7.0,12.0,44,0.00,,,0.00,Rainwise IP-100,2013-04-03 13:10:00,
2013-04-03 09:15:00,31.6,14.0,29.26,SW,225,7.0,10.0,43,0.00,,,0.00,Rainwise IP-100,2013-04-03 13:15:00,
2013-04-03 09:20:00,32.2,14.0,29.26,NW,315,5.0,10.0,43,0.00,,,0.00,Rainwise IP-100,2013-04-03 13:20:00,
2013-04-03 09:25:00,31.3,11.0,29.27,NW,315,6.0,16.0,42,0.00,,,0.00,Rainwise IP-100,2013-04-03 13:25:00,
2013-04-03 09:30:00,31.7,11.0,29.27,SSW,202,8.0,13.0,41,0.00,,,0.00,Rainwise IP-100,2013-04-03 13:30:00,
2013-04-03 09:35:00,31.1,11.0,29.27,West,270,12.0,19.0,42,0.00,,,0.00,Rainwise IP-100,2013-04-03 13:35:00,
2013-04-03 09:41:00,31.4,11.0,29.27,NE,45,7.0,20.0,42,0.00,,,0.00,Rainwise IP-100,2013-04-03 13:41:00,
2013-04-03 09:46:00,31.7,11.0,29.27,SW,225,10.0,16.0,41,0.00,,,0.00,Rainwise IP-100,2013-04-03 13:46:00,
2013-04-03 09:51:00,32.3,14.0,29.27,West,270,9.0,11.0,42,0.00,,,0.00,Rainwise IP-100,2013-04-03 13:51:00,
2013-04-03 09:56:00,32.9,11.0,29.27,SW,225,2.0,12.0,39,0.00,,,0.00,Rainwise IP-100,2013-04-03 13:56:00,
2013-04-03 10:01:00,32.9,11.0,29.27,NNW,337,7.0,17.0,39,0.00,,,0.00,Rainwise IP-100,2013-04-03 14:01:00,
2013-04-03 10:06:00,32.5,11.0,29.27,NW,315,17.0,20.0,38,0.00,,,0.00,Rainwise IP-100,2013-04-03 14:06:00,
2013-04-03 10:11:00,32.9,11.0,29.27,WNW,292,9.0,18.0,37,0.00,,,0.00,Rainwise IP-100,2013-04-03 14:11:00,
2013-04-03 10:16:00,33.2,11.0,29.27,SW,225,4.0,16.0,37,0.00,,,0.00,Rainwise IP-100,2013-04-03 14:16:00,
2013-04-03 10:22:00,33.3,11.0,29.28,NW,315,11.0,17.0,39,0.00,,,0.00,Rainwise IP-100,2013-04-03 14:22:00,
2013-04-03 10:27:00,33.2,11.0,29.27,NW,315,13.0,15.0,38,0.00,,,0.00,Rainwise IP-100,2013-04-03 14:27:00,
2013-04-03 10:32:00,33.0,11.0,29.27,West,270,16.0,22.0,37,0.00,,,0.00,Rainwise IP-100,2013-04-03 14:32:00,
2013-04-03 10:37:00,33.4,11.0,29.27,NW,315,19.0,19.0,39,0.00,,,0.00,Rainwise IP-100,2013-04-03 14:37:00,
2013-04-03 10:42:00,33.7,14.0,29.28,NW,315,13.0,19.0,38,0.00,,,0.00,Rainwise IP-100,2013-04-03 14:42:00,
2013-04-03 10:47:00,33.3,11.0,29.27,WNW,292,12.0,19.0,37,0.00,,,0.00,Rainwise IP-100,2013-04-03 14:47:00,
2013-04-03 10:52:00,32.9,11.0,29.27,WSW,247,13.0,25.0,37,0.00,,,0.00,Rainwise IP-100,2013-04-03 14:52:00,
2013-04-03 10:57:00,32.9,11.0,29.27,WNW,292,17.0,20.0,37,0.00,,,0.00,Rainwise IP-100,2013-04-03 14:57:00,
2013-04-03 11:02:00,33.5,11.0,29.28,NW,315,12.0,20.0,37,0.00,,,0.00,Rainwise IP-100,2013-04-03 15:02:00,
2013-04-03 11:08:00,33.2,8.0,29.27,NW,315,19.0,21.0,34,0.00,,,0.00,Rainwise IP-100,2013-04-03 15:08:00,
2013-04-03 11:13:00,33.9,11.0,29.28,West,270,9.0,20.0,36,0.00,,,0.00,Rainwise IP-100,2013-04-03 15:13:00,
2013-04-03 11:18:00,33.8,11.0,29.27,WSW,247,12.0,17.0,34,0.00,,,0.00,Rainwise IP-100,2013-04-03 15:18:00,
2013-04-03 11:23:00,35.2,11.0,29.27,WNW,292,7.0,15.0,35,0.00,,,0.00,Rainwise IP-100,2013-04-03 15:23:00,
2013-04-03 11:28:00,35.2,8.0,29.27,NW,315,7.0,19.0,32,0.00,,,0.00,Rainwise IP-100,2013-04-03 15:28:00,
2013-04-03 11:33:00,34.9,8.0,29.28,West,270,10.0,17.0,31,0.00,,,0.00,Rainwise IP-100,2013-04-03 15:33:00,
2013-04-03 11:38:00,34.9,8.0,29.27,WSW,247,10.0,22.0,31,0.00,,,0.00,Rainwise IP-100,2013-04-03 15:38:00,
2013-04-03 11:43:00,34.9,8.0,29.28,NW,315,7.0,19.0,32,0.00,,,0.00,Rainwise IP-100,2013-04-03 15:43:00,
2013-04-03 11:49:00,34.9,8.0,29.28,West,270,6.0,20.0,30,0.00,,,0.00,Rainwise IP-100,2013-04-03 15:49:00,
2013-04-03 11:54:00,35.6,8.0,29.28,WNW,292,9.0,19.0,29,0.00,,,0.00,Rainwise IP-100,2013-04-03 15:54:00,
2013-04-03 11:59:00,35.7,8.0,29.28,NW,315,2.0,17.0,29,0.00,,,0.00,Rainwise IP-100,2013-04-03 15:59:00,
2013-04-03 12:04:00,35.6,8.0,29.27,WNW,292,12.0,20.0,28,0.00,,,0.00,Rainwise IP-100,2013-04-03 16:04:00,
2013-04-03 12:09:00,35.4,8.0,29.27,NW,315,9.0,23.0,29,0.00,,,0.00,Rainwise IP-100,2013-04-03 16:09:00,
2013-04-03 12:14:00,35.8,8.0,29.28,NW,315,10.0,19.0,28,0.00,,,0.00,Rainwise IP-100,2013-04-03 16:14:00,
2013-04-03 12:19:00,36.2,8.0,29.27,WNW,292,8.0,16.0,28,0.00,,,0.00,Rainwise IP-100,2013-04-03 16:19:00,
2013-04-03 12:25:00,36.2,8.0,29.27,NW,315,5.0,16.0,27,0.00,,,0.00,Rainwise IP-100,2013-04-03 16:25:00,
2013-04-03 12:30:00,36.9,8.0,29.27,West,270,10.0,15.0,29,0.00,,,0.00,Rainwise IP-100,2013-04-03 16:30:00,
2013-04-03 12:35:00,37.7,8.0,29.27,SW,225,7.0,15.0,28,0.00,,,0.00,Rainwise IP-100,2013-04-03 16:35:00,
2013-04-03 12:40:00,38.0,11.0,29.27,NW,315,8.0,14.0,29,0.00,,,0.00,Rainwise IP-100,2013-04-03 16:40:00,
2013-04-03 12:45:00,37.5,8.0,29.27,SW,225,9.0,19.0,27,0.00,,,0.00,Rainwise IP-100,2013-04-03 16:45:00,
2013-04-03 12:50:00,38.1,11.0,29.27,West,270,7.0,15.0,31,0.00,,,0.00,Rainwise IP-100,2013-04-03 16:50:00,
2013-04-03 12:55:00,37.1,8.0,29.27,NNW,337,9.0,23.0,28,0.00,,,0.00,Rainwise IP-100,2013-04-03 16:55:00,
2013-04-03 13:00:00,37.8,8.0,29.27,WNW,292,9.0,16.0,27,0.00,,,0.00,Rainwise IP-100,2013-04-03 17:00:00,
2013-04-03 13:06:00,37.6,8.0,29.27,NNE,22,12.0,16.0,26,0.00,,,0.00,Rainwise IP-100,2013-04-03 17:06:00,
2013-04-03 13:11:00,38.4,11.0,29.27,WSW,247,7.0,16.0,29,0.00,,,0.00,Rainwise IP-100,2013-04-03 17:11:00,
2013-04-03 13:16:00,39.2,8.0,29.27,SSW,202,6.0,11.0,26,0.00,,,0.00,Rainwise IP-100,2013-04-03 17:16:00,
2013-04-03 13:21:00,38.7,8.0,29.27,NW,315,9.0,16.0,27,0.00,,,0.00,Rainwise IP-100,2013-04-03 17:21:00,
2013-04-03 13:27:00,39.1,8.0,29.27,WNW,292,15.0,17.0,27,0.00,,,0.00,Rainwise IP-100,2013-04-03 17:27:00,
2013-04-03 13:32:00,38.8,8.0,29.27,WSW,247,15.0,23.0,24,0.00,,,0.00,Rainwise IP-100,2013-04-03 17:32:00,
2013-04-03 13:37:00,39.6,11.0,29.27,WNW,292,13.0,19.0,27,0.00,,,0.00,Rainwise IP-100,2013-04-03 17:37:00,
2013-04-03 13:42:00,39.8,8.0,29.27,WNW,292,7.0,21.0,24,0.00,,,0.00,Rainwise IP-100,2013-04-03 17:42:00,
2013-04-03 13:47:00,39.8,8.0,29.27,WSW,247,9.0,23.0,24,0.00,,,0.00,Rainwise IP-100,2013-04-03 17:47:00,
2013-04-03 13:52:00,40.2,8.0,29.27,NW,315,10.0,22.0,24,0.00,,,0.00,Rainwise IP-100,2013-04-03 17:52:00,
2013-04-03 13:57:00,39.6,4.0,29.27,WSW,247,15.0,19.0,21,0.00,,,0.00,Rainwise IP-100,2013-04-03 17:57:00,
2013-04-03 14:02:00,40.3,8.0,29.27,West,270,7.0,19.0,23,0.00,,,0.00,Rainwise IP-100,2013-04-03 18:02:00,
2013-04-03 14:08:00,40.9,8.0,29.27,WNW,292,13.0,16.0,22,0.00,,,0.00,Rainwise IP-100,2013-04-03 18:08:00,
2013-04-03 14:13:00,40.3,8.0,29.27,SW,225,12.0,20.0,22,0.00,,,0.00,Rainwise IP-100,2013-04-03 18:13:00,
2013-04-03 14:18:00,39.9,8.0,29.27,WNW,292,13.0,16.0,23,0.00,,,0.00,Rainwise IP-100,2013-04-03 18:18:00,
2013-04-03 14:23:00,40.1,8.0,29.27,SW,225,12.0,19.0,24,0.00,,,0.00,Rainwise IP-100,2013-04-03 18:23:00,
2013-04-03 14:28:00,39.9,8.0,29.27,WSW,247,11.0,22.0,24,0.00,,,0.00,Rainwise IP-100,2013-04-03 18:28:00,
2013-04-03 14:33:00,40.7,8.0,29.27,SW,225,12.0,16.0,24,0.00,,,0.00,Rainwise IP-100,2013-04-03 18:33:00,
2013-04-03 14:38:00,40.7,8.0,29.28,SW,225,13.0,17.0,24,0.00,,,0.00,Rainwise IP-100,2013-04-03 18:38:00,
2013-04-03 14:44:00,41.5,8.0,29.27,NW,315,7.0,18.0,24,0.00,,,0.00,Rainwise IP-100,2013-04-03 18:44:00,
2013-04-03 14:49:00,41.9,8.0,29.27,NW,315,7.0,21.0,23,0.00,,,0.00,Rainwise IP-100,2013-04-03 18:49:00,
2013-04-03 14:54:00,40.9,8.0,29.27,SW,225,15.0,20.0,22,0.00,,,0.00,Rainwise IP-100,2013-04-03 18:54:00,
2013-04-03 14:59:00,41.5,8.0,29.27,WSW,247,9.0,24.0,24,0.00,,,0.00,Rainwise IP-100,2013-04-03 18:59:00,
2013-04-03 15:04:00,41.6,8.0,29.28,NW,315,9.0,17.0,23,0.00,,,0.00,Rainwise IP-100,2013-04-03 19:04:00,
2013-04-03 15:09:00,42.4,8.0,29.27,NNE,22,2.0,17.0,22,0.00,,,0.00,Rainwise IP-100,2013-04-03 19:09:00,
2013-04-03 15:14:00,41.9,8.0,29.28,West,270,10.0,25.0,23,0.00,,,0.00,Rainwise IP-100,2013-04-03 19:14:00,
2013-04-03 15:20:00,41.3,8.0,29.28,SW,225,13.0,25.0,23,0.00,,,0.00,Rainwise IP-100,2013-04-03 19:20:00,
2013-04-03 15:25:00,40.5,8.0,29.27,WNW,292,10.0,25.0,22,0.00,,,0.00,Rainwise IP-100,2013-04-03 19:25:00,
2013-04-03 15:30:00,40.9,8.0,29.28,WSW,247,8.0,25.0,22,0.00,,,0.00,Rainwise IP-100,2013-04-03 19:30:00,
2013-04-03 15:35:00,40.4,4.0,29.28,WNW,292,10.0,22.0,21,0.00,,,0.00,Rainwise IP-100,2013-04-03 19:35:00,
2013-04-03 15:40:00,41.6,8.0,29.28,WSW,247,9.0,20.0,24,0.00,,,0.00,Rainwise IP-100,2013-04-03 19:40:00,
2013-04-03 15:45:00,40.9,8.0,29.28,WSW,247,15.0,21.0,22,0.00,,,0.00,Rainwise IP-100,2013-04-03 19:45:00,
2013-04-03 15:50:00,41.2,4.0,29.28,West,270,7.0,16.0,20,0.00,,,0.00,Rainwise IP-100,2013-04-03 19:50:00,
2013-04-03 15:55:00,41.1,8.0,29.28,SW,225,13.0,19.0,24,0.00,,,0.00,Rainwise IP-100,2013-04-03 19:55:00,
2013-04-03 16:00:00,40.9,4.0,29.28,WNW,292,9.0,17.0,21,0.00,,,0.00,Rainwise IP-100,2013-04-03 20:00:00,
2013-04-03 16:05:00,41.8,8.0,29.28,NW,315,12.0,15.0,21,0.00,,,0.00,Rainwise IP-100,2013-04-03 20:05:00,
2013-04-03 16:11:00,42.1,8.0,29.28,SW,225,6.0,15.0,22,0.00,,,0.00,Rainwise IP-100,2013-04-03 20:11:00,
2013-04-03 16:16:00,41.4,8.0,29.28,WNW,292,12.0,21.0,22,0.00,,,0.00,Rainwise IP-100,2013-04-03 20:16:00,
2013-04-03 16:21:00,40.9,11.0,29.28,NW,315,9.0,24.0,25,0.00,,,0.00,Rainwise IP-100,2013-04-03 20:21:00,
2013-04-03 16:26:00,41.2,8.0,29.28,WNW,292,10.0,17.0,24,0.00,,,0.00,Rainwise IP-100,2013-04-03 20:26:00,
2013-04-03 16:31:00,42.1,8.0,29.29,NW,315,7.0,17.0,22,0.00,,,0.00,Rainwise IP-100,2013-04-03 20:31:00,
2013-04-03 16:36:00,41.2,8.0,29.29,SSW,202,8.0,18.0,22,0.00,,,0.00,Rainwise IP-100,2013-04-03 20:36:00,
2013-04-03 16:42:00,40.9,8.0,29.30,WNW,292,7.0,24.0,23,0.00,,,0.00,Rainwise IP-100,2013-04-03 20:42:00,
2013-04-03 16:47:00,41.2,8.0,29.29,WSW,247,12.0,18.0,22,0.00,,,0.00,Rainwise IP-100,2013-04-03 20:47:00,
2013-04-03 16:52:00,40.5,8.0,29.29,WNW,292,7.0,20.0,24,0.00,,,0.00,Rainwise IP-100,2013-04-03 20:52:00,
2013-04-03 16:57:00,40.3,8.0,29.29,SW,225,13.0,20.0,24,0.00,,,0.00,Rainwise IP-100,2013-04-03 20:57:00,
2013-04-03 17:02:00,40.2,11.0,29.29,West,270,10.0,18.0,26,0.00,,,0.00,Rainwise IP-100,2013-04-03 21:02:00,
2013-04-03 17:07:00,39.9,8.0,29.29,WNW,292,10.0,21.0,24,0.00,,,0.00,Rainwise IP-100,2013-04-03 21:07:00,
2013-04-03 17:12:00,40.3,11.0,29.29,West,270,16.0,19.0,26,0.00,,,0.00,Rainwise IP-100,2013-04-03 21:12:00,
2013-04-03 17:18:00,40.2,8.0,29.29,WSW,247,10.0,21.0,24,0.00,,,0.00,Rainwise IP-100,2013-04-03 21:18:00,
2013-04-03 17:23:00,39.6,11.0,29.30,WSW,247,7.0,20.0,27,0.00,,,0.00,Rainwise IP-100,2013-04-03 21:23:00,
2013-04-03 17:28:00,39.6,11.0,29.30,WSW,247,15.0,20.0,26,0.00,,,0.00,Rainwise IP-100,2013-04-03 21:28:00,
2013-04-03 17:33:00,39.1,8.0,29.30,NW,315,9.0,23.0,26,0.00,,,0.00,Rainwise IP-100,2013-04-03 21:33:00,
2013-04-03 17:38:00,38.9,8.0,29.30,WNW,292,15.0,18.0,25,0.00,,,0.00,Rainwise IP-100,2013-04-03 21:38:00,
2013-04-03 17:43:00,38.9,8.0,29.29,West,270,17.0,22.0,26,0.00,,,0.00,Rainwise IP-100,2013-04-03 21:43:00,
2013-04-03 17:48:00,38.8,8.0,29.30,WSW,247,9.0,19.0,27,0.00,,,0.00,Rainwise IP-100,2013-04-03 21:48:00,
2013-04-03 17:53:00,38.9,8.0,29.31,SW,225,10.0,19.0,26,0.00,,,0.00,Rainwise IP-100,2013-04-03 21:53:00,
2013-04-03 17:59:00,38.5,8.0,29.31,WNW,292,17.0,23.0,26,0.00,,,0.00,Rainwise IP-100,2013-04-03 21:59:00,
2013-04-03 18:04:00,38.5,8.0,29.31,West,270,10.0,18.0,26,0.00,,,0.00,Rainwise IP-100,2013-04-03 22:04:00,
2013-04-03 18:09:00,38.3,8.0,29.32,West,270,13.0,17.0,27,0.00,,,0.00,Rainwise IP-100,2013-04-03 22:09:00,
2013-04-03 18:14:00,37.8,8.0,29.32,NW,315,12.0,17.0,27,0.00,,,0.00,Rainwise IP-100,2013-04-03 22:14:00,
2013-04-03 18:19:00,37.5,8.0,29.32,WNW,292,9.0,23.0,28,0.00,,,0.00,Rainwise IP-100,2013-04-03 22:19:00,
2013-04-03 18:24:00,37.4,8.0,29.32,SW,225,12.0,19.0,28,0.00,,,0.00,Rainwise IP-100,2013-04-03 22:24:00,
2013-04-03 18:30:00,37.1,11.0,29.33,SW,225,9.0,15.0,30,0.00,,,0.00,Rainwise IP-100,2013-04-03 22:30:00,
2013-04-03 18:35:00,36.8,11.0,29.33,West,270,11.0,21.0,30,0.00,,,0.00,Rainwise IP-100,2013-04-03 22:35:00,
2013-04-03 18:40:00,36.5,11.0,29.34,WNW,292,9.0,23.0,31,0.00,,,0.00,Rainwise IP-100,2013-04-03 22:40:00,
2013-04-03 18:45:00,36.3,11.0,29.34,WSW,247,5.0,20.0,31,0.00,,,0.00,Rainwise IP-100,2013-04-03 22:45:00,
2013-04-03 18:50:00,35.9,11.0,29.34,WNW,292,6.0,15.0,31,0.00,,,0.00,Rainwise IP-100,2013-04-03 22:50:00,
2013-04-03 18:55:00,35.7,11.0,29.34,West,270,6.0,10.0,31,0.00,,,0.00,Rainwise IP-100,2013-04-03 22:55:00,
2013-04-03 19:00:00,35.1,11.0,29.35,WNW,292,10.0,10.0,33,0.00,,,0.00,Rainwise IP-100,2013-04-03 23:00:00,
2013-04-03 19:05:00,34.9,11.0,29.35,WNW,292,9.0,19.0,34,0.00,,,0.00,Rainwise IP-100,2013-04-03 23:05:00,
2013-04-03 19:10:00,34.6,11.0,29.35,NW,315,9.0,20.0,34,0.00,,,0.00,Rainwise IP-100,2013-04-03 23:10:00,
2013-04-03 19:15:00,34.7,11.0,29.35,WNW,292,7.0,15.0,34,0.00,,,0.00,Rainwise IP-100,2013-04-03 23:15:00,
2013-04-03 19:21:00,34.4,11.0,29.36,WNW,292,9.0,17.0,35,0.00,,,0.00,Rainwise IP-100,2013-04-03 23:21:00,
2013-04-03 19:26:00,34.3,11.0,29.36,WSW,247,9.0,17.0,35,0.00,,,0.00,Rainwise IP-100,2013-04-03 23:26:00,
2013-04-03 19:31:00,33.8,11.0,29.36,WSW,247,5.0,15.0,36,0.00,,,0.00,Rainwise IP-100,2013-04-03 23:31:00,
2013-04-03 19:36:00,33.3,11.0,29.36,WNW,292,7.0,9.0,38,0.00,,,0.00,Rainwise IP-100,2013-04-03 23:36:00,
2013-04-03 19:41:00,32.9,11.0,29.36,West,270,4.0,10.0,39,0.00,,,0.00,Rainwise IP-100,2013-04-03 23:41:00,
2013-04-03 19:46:00,32.9,11.0,29.37,WSW,247,6.0,13.0,37,0.00,,,0.00,Rainwise IP-100,2013-04-03 23:46:00,
2013-04-03 19:52:00,32.9,11.0,29.37,WNW,292,6.0,16.0,39,0.00,,,0.00,Rainwise IP-100,2013-04-03 23:52:00,
2013-04-03 19:57:00,32.9,11.0,29.37,WNW,292,7.0,12.0,39,0.00,,,0.00,Rainwise IP-100,2013-04-03 23:57:00,
2013-04-03 20:02:00,32.7,14.0,29.37,WNW,292,3.0,13.0,40,0.00,,,0.00,Rainwise IP-100,2013-04-04 00:02:00,
2013-04-03 20:07:00,32.4,14.0,29.38,West,270,6.0,10.0,42,0.00,,,0.00,Rainwise IP-100,2013-04-04 00:07:00,
2013-04-03 20:12:00,32.3,14.0,29.38,WNW,292,17.0,17.0,42,0.00,,,0.00,Rainwise IP-100,2013-04-04 00:12:00,
2013-04-03 20:17:00,32.4,14.0,29.39,WNW,292,7.0,20.0,42,0.00,,,0.00,Rainwise IP-100,2013-04-04 00:17:00,
2013-04-03 20:22:00,32.3,14.0,29.39,West,270,6.0,16.0,42,0.00,,,0.00,Rainwise IP-100,2013-04-04 00:22:00,
2013-04-03 20:27:00,32.3,14.0,29.39,WNW,292,10.0,19.0,43,0.00,,,0.00,Rainwise IP-100,2013-04-04 00:27:00,
2013-04-03 20:33:00,32.1,14.0,29.39,WNW,292,5.0,16.0,44,0.00,,,0.00,Rainwise IP-100,2013-04-04 00:33:00,
2013-04-03 20:38:00,31.8,14.0,29.39,West,270,7.0,16.0,45,0.00,,,0.00,Rainwise IP-100,2013-04-04 00:38:00,
2013-04-03 20:43:00,31.6,14.0,29.40,West,270,9.0,15.0,45,0.00,,,0.00,Rainwise IP-100,2013-04-04 00:43:00,
2013-04-03 20:48:00,31.6,14.0,29.39,SW,225,11.0,23.0,45,0.00,,,0.00,Rainwise IP-100,2013-04-04 00:48:00,
2013-04-03 20:53:00,31.5,14.0,29.39,WNW,292,10.0,16.0,45,0.00,,,0.00,Rainwise IP-100,2013-04-04 00:53:00,
2013-04-03 20:58:00,31.3,14.0,29.40,West,270,4.0,13.0,47,0.00,,,0.00,Rainwise IP-100,2013-04-04 00:58:00,
2013-04-03 21:03:00,31.2,14.0,29.40,WNW,292,6.0,11.0,46,0.00,,,0.00,Rainwise IP-100,2013-04-04 01:03:00,
2013-04-03 21:08:00,31.2,14.0,29.40,WSW,247,10.0,13.0,46,0.00,,,0.00,Rainwise IP-100,2013-04-04 01:08:00,
2013-04-03 21:14:00,31.1,14.0,29.41,NW,315,7.0,15.0,47,0.00,,,0.00,Rainwise IP-100,2013-04-04 01:14:00,
2013-04-03 21:19:00,30.8,14.0,29.41,NW,315,4.0,10.0,48,0.00,,,0.00,Rainwise IP-100,2013-04-04 01:19:00,
2013-04-03 21:24:00,30.7,14.0,29.41,SW,225,11.0,12.0,48,0.00,,,0.00,Rainwise IP-100,2013-04-04 01:24:00,
2013-04-03 21:29:00,30.8,14.0,29.41,WNW,292,12.0,13.0,48,0.00,,,0.00,Rainwise IP-100,2013-04-04 01:29:00,
2013-04-03 21:34:00,30.9,14.0,29.41,NW,315,7.0,17.0,47,0.00,,,0.00,Rainwise IP-100,2013-04-04 01:34:00,
2013-04-03 21:39:00,30.6,14.0,29.42,NW,315,5.0,10.0,48,0.00,,,0.00,Rainwise IP-100,2013-04-04 01:39:00,
2013-04-03 21:44:00,30.5,14.0,29.42,NNW,337,1.0,10.0,48,0.00,,,0.00,Rainwise IP-100,2013-04-04 01:44:00,
2013-04-03 21:49:00,30.3,14.0,29.42,West,270,7.0,10.0,49,0.00,,,0.00,Rainwise IP-100,2013-04-04 01:49:00,
2013-04-03 21:54:00,30.4,14.0,29.42,SW,225,8.0,14.0,49,0.00,,,0.00,Rainwise IP-100,2013-04-04 01:54:00,
2013-04-03 21:59:00,30.4,14.0,29.43,West,270,7.0,15.0,48,0.00,,,0.00,Rainwise IP-100,2013-04-04 01:59:00,
2013-04-03 22:04:00,30.5,14.0,29.43,WSW,247,2.0,15.0,48,0.00,,,0.00,Rainwise IP-100,2013-04-04 02:04:00,
2013-04-03 22:09:00,30.4,14.0,29.43,WNW,292,11.0,15.0,49,0.00,,,0.00,Rainwise IP-100,2013-04-04 02:09:00,
2013-04-03 22:14:00,30.4,16.0,29.43,NW,315,7.0,17.0,50,0.00,,,0.00,Rainwise IP-100,2013-04-04 02:14:00,
2013-04-03 22:20:00,30.2,16.0,29.43,WNW,292,7.0,12.0,50,0.00,,,0.00,Rainwise IP-100,2013-04-04 02:20:00,
2013-04-03 22:25:00,29.9,16.0,29.43,West,270,7.0,15.0,50,0.00,,,0.00,Rainwise IP-100,2013-04-04 02:25:00,
2013-04-03 22:30:00,30.0,16.0,29.43,WSW,247,6.0,16.0,50,0.00,,,0.00,Rainwise IP-100,2013-04-04 02:30:00,
2013-04-03 22:35:00,30.2,16.0,29.43,WNW,292,7.0,15.0,50,0.00,,,0.00,Rainwise IP-100,2013-04-04 02:35:00,
2013-04-03 22:40:00,30.0,16.0,29.43,WSW,247,10.0,13.0,50,0.00,,,0.00,Rainwise IP-100,2013-04-04 02:40:00,
2013-04-03 22:45:00,29.9,16.0,29.43,NW,315,10.0,17.0,50,0.00,,,0.00,Rainwise IP-100,2013-04-04 02:45:00,
2013-04-03 22:50:00,30.2,14.0,29.43,WNW,292,13.0,16.0,49,0.00,,,0.00,Rainwise IP-100,2013-04-04 02:50:00,
2013-04-03 22:56:00,30.2,14.0,29.44,WNW,292,7.0,16.0,49,0.00,,,0.00,Rainwise IP-100,2013-04-04 02:56:00,
2013-04-03 23:01:00,30.1,16.0,29.43,WNW,292,6.0,17.0,50,0.00,,,0.00,Rainwise IP-100,2013-04-04 03:01:00,
2013-04-03 23:06:00,29.7,16.0,29.43,WNW,292,6.0,20.0,51,0.00,,,0.00,Rainwise IP-100,2013-04-04 03:06:00,
2013-04-03 23:11:00,29.5,16.0,29.43,WSW,247,6.0,12.0,51,0.00,,,0.00,Rainwise IP-100,2013-04-04 03:11:00,
2013-04-03 23:16:00,29.7,16.0,29.44,WSW,247,7.0,12.0,50,0.00,,,0.00,Rainwise IP-100,2013-04-04 03:16:00,
2013-04-03 23:21:00,29.5,16.0,29.44,NW,315,5.0,11.0,51,0.00,,,0.00,Rainwise IP-100,2013-04-04 03:21:00,
2013-04-03 23:26:00,29.2,14.0,29.44,WNW,292,3.0,7.0,52,0.00,,,0.00,Rainwise IP-100,2013-04-04 03:26:00,
2013-04-03 23:32:00,28.8,14.0,29.44,WNW,292,7.0,7.0,52,0.00,,,0.00,Rainwise IP-100,2013-04-04 03:32:00,
2013-04-03 23:37:00,28.9,14.0,29.44,WNW,292,7.0,9.0,52,0.00,,,0.00,Rainwise IP-100,2013-04-04 03:37:00,
2013-04-03 23:42:00,28.6,14.0,29.44,NNW,337,3.0,7.0,52,0.00,,,0.00,Rainwise IP-100,2013-04-04 03:42:00,
2013-04-03 23:47:00,27.9,14.0,29.45,NW,315,6.0,7.0,55,0.00,,,0.00,Rainwise IP-100,2013-04-04 03:47:00,
2013-04-03 23:52:00,28.3,14.0,29.45,NNW,337,5.0,10.0,53,0.00,,,0.00,Rainwise IP-100,2013-04-04 03:52:00,
2013-04-03 23:57:00,28.8,14.0,29.45,NW,315,1.0,12.0,52,0.00,,,0.00,Rainwise IP-100,2013-04-04 03:57:00,